Location: Azul
(36.7830°S, 59.8500°W)
Time: 17:57:20
(UTC-03:00)

VELOX 1 - Pass Details

Date: 01 November 2021
Orbit: 627 x 641 km, 98.3° (Epoch: 06 December)

Event Time Altitude Azimuth Distance (km) Brightness Sun altitude
Rises 04:41:49 0° 153° (SSE) 2,952 ? -13.9°
Reaches altitude 10° 04:44:24 10° 138° (SE) 2,034 ? -13.5°
Maximum altitude 04:47:58 24° 84° (E) 1,330 ? -12.9°
Drops below altitude 10° 04:51:30 10° 30° (NNE) 2,008 ? -12.2°
Sets 04:54:02 0° 16° (NNE) 2,906 ? -11.8°
